Starlink 5998

operational
NORAD ID: 56468 Int'l Des: 2023-064 Owner: SPXS Country: US Constellation: starlink
LEOCIRCULAR

Über Starlink 5998

Beschreibung wird geladen...

Live-Position

3D-Globus wird geladen...

Nächste Überflüge

Höhenverlauf

Altitude vs Time

uPlot chart will show altitude changes over time

Zweizeiliger Elementsatz

1 56468U 23064W 26035.73071225 .00001041 00000-0 94985-4 0 9992
2 56468 69.9989 227.3712 0002293 274.0984 85.9913 14.98333005150316
Epoch: 4. Feb. 2026 • Age: 10 hours

Aktueller Status

Höhe 578.9 km
Geschwindigkeit 7.58 km/s
Subsatellitenpunkt 43.00°N, 60.42°E
Startdatum 10. Mai 2023
Alter 2.7 years
Typ internet

Technische Details

Klassifizierung Payload
Masse 305.00 kg
Trockenmasse 290.00 kg
Gesamtmasse 305.00 kg
Länge 0.20 m
Durchmesser 2.80 m
Spannweite 9.00 m
Form Box + pan
Hersteller SPXS
Bus-Typ Starlink
Phasenstatus In Orbit
Besitzer/Staat SPXS/US

Große Konstellationen

Loading constellations...